GW2731 Weather Reports


Display with metric or nautical units.
time (UTC)temp
F
wind
direction
speed
MPH
gust
MPH
rain 1hr
in
rain 24hr
in
rain mn
in
humidity
%
barometer
mb
20260906192146 102 174 4.0 8.0 0.00 0.00 0.00 38 1015.2
20260906191641 102 144 4.0 8.0 0.00 0.00 0.00 39 1015.4
20260906191140 102 159 1.0 4.0 0.00 0.00 0.00 37 1015.3
20260906190634 102 171 2.0 4.0 0.00 0.00 0.00 38 1015.2
20260906190129 103 168 4.0 7.0 0.00 0.00 0.00 37 1015.4
20260906185628 101 132 1.0 3.0 0.00 0.00 0.00 38 1015.6
20260906185127 100 132 2.0 3.0 0.00 0.00 0.00 39 1015.3
20260906184622 101 281 2.0 4.0 0.00 0.00 0.00 40 1015.6
20260906184118 102 199 5.0 6.0 0.00 0.00 0.00 39 1015.9
20260906183614 101 220 2.0 4.0 0.00 0.00 0.00 39 1015.7
20260906183109 100 116 1.0 2.0 0.00 0.00 0.00 41 1015.7
20260906182604 99 151 0.0 2.0 0.00 0.00 0.00 43 1016.1
20260906182101 100 114 2.0 4.0 0.00 0.00 0.00 41 1016.2
20260906181555 98 132 0.0 3.0 0.00 0.00 0.00 44 1016.0
20260906181052 100 51 3.0 4.0 0.00 0.00 0.00 43 1016.3
20260906180551 101 100 3.0 4.0 0.00 0.00 0.00 42 1016.4
20260906180050 101 107 3.0 4.0 0.00 0.00 0.00 41 1016.5
20260906175549 100 160 0.0 3.0 0.00 0.00 0.00 44 1016.6
20260906175044 99 172 1.0 4.0 0.00 0.00 0.00 44 1016.7
20260906174542 100 246 3.0 6.0 0.00 0.00 0.00 44 1016.9
20260906174037 100 159 1.0 2.0 0.00 0.00 0.00 45 1016.8
20260906173532 99 195 2.0 3.0 0.00 0.00 0.00 46 1016.8
20260906173029 99 211 2.0 3.0 0.00 0.00 0.00 44 1016.9
20260906172523 99 185 2.0 2.0 0.00 0.00 0.00 45 1017.0
20260906172018 99 294 1.0 2.0 0.00 0.00 0.00 45 1017.1
20260906171513 98 145 1.0 4.0 0.00 0.00 0.00 48 1017.1
20260906171008 98 116 2.0 4.0 0.00 0.00 0.00 48 1017.3
20260906170504 97 133 0.0 3.0 0.00 0.00 0.00 48 1017.2
20260906170003 97 100 2.0 3.0 0.00 0.00 0.00 48 1017.4
20260906165500 97 194 2.0 4.0 0.00 0.00 0.00 49 1017.2
20260906164955 98 193 2.0 3.0 0.00 0.00 0.00 49 1017.7
20260906164454 96 147 0.0 1.0 0.00 0.00 0.00 49 1017.7
20260906163951 95 174 1.0 2.0 0.00 0.00 0.00 49 1017.6
20260906163446 95 156 0.0 2.0 0.00 0.00 0.00 49 1017.7
20260906162944 96 158 0.0 3.0 0.00 0.00 0.00 49 1017.6
20260906162443 96 223 4.0 4.0 0.00 0.00 0.00 49 1017.7
20260906161937 95 144 0.0 0.0 0.00 0.00 0.00 49 1017.8
20260906161432 95 187 1.0 3.0 0.00 0.00 0.00 51 1017.8
20260906160931 96 179 2.0 3.0 0.00 0.00 0.00 51 1017.7
20260906160424 95 160 1.0 1.0 0.00 0.00 0.00 50 1017.7
20260906155923 94 134 0.0 2.0 0.00 0.00 0.00 50 1017.8
20260906155416 94 168 1.0 1.0 0.00 0.00 0.00 51 1017.8
20260906154913 94 165 1.0 2.0 0.00 0.00 0.00 52 1017.7
20260906154407 94 165 1.0 4.0 0.00 0.00 0.00 53 1017.7
20260906153906 92 142 0.0 3.0 0.00 0.00 0.00 54 1017.9
20260906153404 93 162 1.0 1.0 0.00 0.00 0.00 54 1017.6
20260906152900 93 154 1.0 3.0 0.00 0.00 0.00 55 1017.6
20260906152355 92 160 1.0 3.0 0.00 0.00 0.00 57 1017.5
20260906151854 91 113 1.0 2.0 0.00 0.00 0.00 56 1017.7
20260906151350 90 160 1.0 2.0 0.00 0.00 0.00 58 1017.5
20260906150846 91 157 0.0 3.0 0.00 0.00 0.00 58 1017.7
20260906150341 91 154 0.0 2.0 0.00 0.00 0.00 59 1017.7
20260906145840 91 146 2.0 3.0 0.00 0.00 0.00 60 1017.5
20260906145339 90 152 0.0 2.0 0.00 0.00 0.00 61 1017.6
20260906144834 90 147 0.0 1.0 0.00 0.00 0.00 58 1017.7
20260906144329 89 164 1.0 2.0 0.00 0.00 0.00 60 1017.5
20260906143829 88 160 1.0 2.0 0.00 0.00 0.00 63 1017.6
20260906143325 89 158 1.0 2.0 0.00 0.00 0.00 63 1017.6
20260906142820 89 156 1.0 1.0 0.00 0.00 0.00 62 1017.6
20260906142315 87 189 3.0 3.0 0.00 0.00 0.00 64 1017.3
20260906141815 87 224 2.0 2.0 0.00 0.00 0.00 65 1017.4
20260906141309 87 298 1.0 2.0 0.00 0.00 0.00 65 1017.2
20260906140808 88 155 0.0 2.0 0.00 0.00 0.00 65 1017.3
20260906140303 87 168 0.0 2.0 0.00 0.00 0.00 66 1017.4
20260906135801 86 154 0.0 1.0 0.00 0.00 0.00 67 1017.3
20260906135256 86 172 0.0 2.0 0.00 0.00 0.00 68 1017.2
20260906134751 84 165 0.0 2.0 0.00 0.00 0.00 70 1017.1
20260906134246 84 196 1.0 2.0 0.00 0.00 0.00 71 1017.1
20260906133742 83 159 0.0 1.0 0.00 0.00 0.00 73 1017.3
20260906133238 83 163 1.0 2.0 0.00 0.00 0.00 75 1017.3
20260906132733 82 164 1.0 2.0 0.00 0.00 0.00 76 1017.3
20260906132228 81 171 1.0 2.0 0.00 0.00 0.00 78 1017.2
20260906131723 80 165 1.0 2.0 0.00 0.00 0.00 80 1017.1
20260906131213 80 160 1.0 1.0 0.00 0.00 0.00 80 1017.1
20260906130708 80 163 1.0 1.0 0.00 0.00 0.00 80 1017.2
20260906130203 80 149 0.0 0.0 0.00 0.00 0.00 82 1017.1
20260906125701 80 150 0.0 0.0 0.00 0.00 0.00 83 1017.1
20260906125200 79 150 0.0 0.0 0.00 0.00 0.00 83 1017.2
20260906124655 79 152 0.0 1.0 0.00 0.00 0.00 85 1017.1
20260906124151 78 158 0.0 0.0 0.00 0.00 0.00 88 1017.0
20260906123649 77 161 1.0 1.0 0.00 0.00 0.00 89 1017.1
20260906123145 77 153 0.0 1.0 0.00 0.00 0.00 89 1017.0
20260906122644 77 155 0.0 1.0 0.00 0.00 0.00 90 1016.8
20260906122140 76 156 0.0 0.0 0.00 0.00 0.00 90 1016.8
20260906121636 76 157 0.0 0.0 0.00 0.00 0.00 91 1016.9
20260906121132 75 154 0.0 0.0 0.00 0.00 0.00 91 1016.9
20260906120627 75 155 0.0 0.0 0.00 0.00 0.00 91 1016.7
20260906120125 76 158 0.0 0.0 0.00 0.00 0.00 92 1016.6
20260906115624 76 158 0.0 0.0 0.00 0.00 0.00 91 1016.6
20260906115120 75 156 0.0 0.0 0.00 0.00 0.00 90 1016.7
20260906114614 75 162 0.0 0.0 0.00 0.00 0.00 91 1016.6
20260906114109 76 155 0.0 0.0 0.00 0.00 0.00 90 1016.6
20260906113609 76 154 0.0 0.0 0.00 0.00 0.00 90 1016.7
20260906113103 76 147 0.0 0.0 0.00 0.00 0.00 90 1016.5
20260906112557 76 145 0.0 0.0 0.00 0.00 0.00 90 1016.5
20260906112055 76 147 0.0 0.0 0.00 0.00 0.00 90 1016.2
20260906111553 76 146 0.0 0.0 0.00 0.00 0.00 90 1016.2
20260906111049 76 158 0.0 0.0 0.00 0.00 0.00 89 1016.1
20260906110549 76 156 0.0 0.0 0.00 0.00 0.00 89 1016.1
20260906110048 76 154 0.0 0.0 0.00 0.00 0.00 90 1016.1
20260906105543 76 154 0.0 0.0 0.00 0.00 0.00 89 1016.2
20260906105039 77 153 0.0 0.0 0.00 0.00 0.00 89 1016.1
20260906104537 77 146 0.0 0.0 0.00 0.00 0.00 89 1016.1
20260906104032 77 145 0.0 0.0 0.00 0.00 0.00 89 1016.3
20260906103530 77 152 0.0 0.0 0.00 0.00 0.00 88 1016.2
20260906103026 77 156 0.0 0.0 0.00 0.00 0.00 88 1016.4
20260906102526 77 155 0.0 0.0 0.00 0.00 0.00 87 1016.1
20260906102021 77 149 0.0 0.0 0.00 0.00 0.00 86 1016.1
20260906101515 77 157 0.0 0.0 0.00 0.00 0.00 87 1016.1
20260906101010 77 159 0.0 0.0 0.00 0.00 0.00 87 1015.9
20260906100506 77 158 0.0 0.0 0.00 0.00 0.00 87 1016.0
20260906100000 77 158 0.0 0.0 0.00 0.00 0.00 87 1016.0
20260906095455 77 155 0.0 0.0 0.00 0.00 0.00 87 1016.2
20260906094950 77 151 0.0 0.0 0.00 0.00 0.00 87 1016.2
20260906094449 77 157 0.0 0.0 0.00 0.00 0.00 88 1016.0
20260906093946 78 158 0.0 0.0 0.00 0.00 0.00 87 1016.1
20260906093441 78 155 0.0 0.0 0.00 0.00 0.00 87 1015.9
20260906092936 78 156 0.0 0.0 0.00 0.00 0.00 85 1016.1
20260906092436 78 158 0.0 1.0 0.00 0.00 0.00 85 1016.2
20260906091931 78 149 0.0 1.0 0.00 0.00 0.00 84 1015.9
20260906091427 78 146 0.0 0.0 0.00 0.00 0.00 84 1015.6
20260906090923 78 154 0.0 0.0 0.00 0.00 0.00 84 1015.9
20260906090418 78 154 0.0 0.0 0.00 0.00 0.00 83 1015.6
20260906085912 79 158 0.0 0.0 0.00 0.00 0.00 83 1015.9
20260906085412 79 158 0.0 0.0 0.00 0.00 0.00 82 1015.7
20260906084911 79 169 1.0 2.0 0.00 0.00 0.00 82 1015.6
20260906084406 79 151 0.0 0.0 0.00 0.00 0.00 82 1015.6
20260906083905 79 156 0.0 1.0 0.00 0.00 0.00 82 1015.6
20260906083401 79 151 0.0 2.0 0.00 0.00 0.00 81 1015.5
20260906082900 79 151 1.0 2.0 0.00 0.00 0.00 81 1015.5
20260906082355 79 153 0.0 0.0 0.00 0.00 0.00 80 1015.5
20260906081852 79 153 0.0 0.0 0.00 0.00 0.00 81 1015.5
20260906081347 79 154 0.0 0.0 0.00 0.00 0.00 81 1015.1
20260906080843 79 149 0.0 0.0 0.00 0.00 0.00 80 1015.1
20260906080339 79 158 0.0 0.0 0.00 0.00 0.00 81 1015.3
20260906075838 79 158 0.0 0.0 0.00 0.00 0.00 80 1015.1
20260906075333 80 159 0.0 1.0 0.00 0.00 0.00 81 1015.3
20260906074829 80 161 0.0 0.0 0.00 0.00 0.00 81 1015.2
20260906074328 80 156 0.0 0.0 0.00 0.00 0.00 81 1015.3
20260906073827 80 157 0.0 0.0 0.00 0.00 0.00 80 1015.3
20260906073322 80 156 0.0 0.0 0.00 0.00 0.00 80 1015.3
20260906072819 80 152 0.0 0.0 0.00 0.00 0.00 80 1015.1
20260906072314 80 149 0.0 0.0 0.00 0.00 0.00 80 1015.3
20260906071809 80 149 0.0 0.0 0.00 0.00 0.00 80 1015.2
20260906071304 81 132 1.0 1.0 0.00 0.00 0.00 80 1015.5
20260906070800 81 156 0.0 0.0 0.00 0.00 0.00 78 1015.4
20260906070256 81 156 0.0 0.0 0.00 0.00 0.00 77 1015.2
20260906065750 82 156 0.0 0.0 0.00 0.00 0.00 76 1015.4
20260906065245 82 157 0.0 0.0 0.00 0.00 0.00 75 1015.3
20260906064741 81 156 0.0 0.0 0.00 0.00 0.00 76 1015.4
20260906064237 81 156 0.0 0.0 0.00 0.00 0.00 76 1015.2
20260906063731 81 156 0.0 0.0 0.00 0.00 0.00 77 1015.5
20260906063227 81 156 0.0 0.0 0.00 0.00 0.00 77 1015.3
20260906062722 81 157 0.0 0.0 0.00 0.00 0.00 77 1015.5
20260906062221 81 153 0.0 0.0 0.00 0.00 0.00 77 1015.5
20260906061717 81 157 0.0 0.0 0.00 0.00 0.00 77 1015.5
20260906061213 81 155 0.0 0.0 0.00 0.00 0.00 76 1015.6
20260906060709 81 160 0.0 0.0 0.00 0.00 0.00 77 1015.5
20260906060206 81 154 0.0 0.0 0.00 0.00 0.00 78 1015.5
20260906055701 81 154 0.0 0.0 0.00 0.00 0.00 78 1015.5
20260906055156 81 148 0.0 0.0 0.00 0.00 0.00 78 1015.4
20260906054651 81 146 0.0 0.0 0.00 0.00 0.00 77 1015.4
20260906054146 80 146 0.0 0.0 0.00 0.00 0.00 78 1015.3
20260906053643 81 149 0.0 0.0 0.00 0.00 0.00 78 1015.3
20260906053138 81 146 0.0 0.0 0.00 0.00 0.00 78 1015.4
20260906052633 81 146 0.0 1.0 0.00 0.00 0.00 78 1015.4
20260906052129 81 145 0.0 0.0 0.00 0.00 0.00 78 1015.2
20260906051625 81 150 0.0 0.0 0.00 0.00 0.00 77 1015.2
20260906051120 81 150 0.0 0.0 0.00 0.00 0.00 77 1015.2
20260906050616 82 144 0.0 0.0 0.00 0.00 0.00 77 1015.1
20260906050111 82 145 0.0 0.0 0.00 0.00 0.00 77 1015.2
20260906045609 82 148 0.0 0.0 0.00 0.00 0.00 76 1015.2
20260906045104 82 149 0.0 0.0 0.00 0.00 0.00 75 1015.4
20260906044600 82 150 0.0 1.0 0.00 0.00 0.00 75 1015.4
20260906044055 82 156 0.0 2.0 0.00 0.00 0.00 74 1015.4
20260906043551 83 157 0.0 0.0 0.00 0.00 0.00 75 1015.2
20260906043047 83 155 1.0 1.0 0.00 0.00 0.00 76 1015.2
20260906042545 83 145 0.0 0.0 0.00 0.00 0.00 75 1015.2
20260906042040 83 153 0.0 0.0 0.00 0.00 0.00 74 1015.3
20260906041537 84 153 0.0 1.0 0.00 0.00 0.00 73 1015.1
20260906041031 84 159 0.0 0.0 0.00 0.00 0.00 70 1015.1
20260906040526 84 152 0.0 0.0 0.00 0.00 0.00 71 1015.2
20260906040022 85 147 0.0 0.0 0.00 0.00 0.00 70 1015.2
20260906035517 85 146 0.0 0.0 0.00 0.00 0.00 68 1015.1
20260906035013 84 157 0.0 0.0 0.00 0.00 0.00 68 1015.1
20260906034512 84 152 0.0 0.0 0.00 0.00 0.00 70 1015.3
20260906034008 85 125 0.0 0.0 0.00 0.00 0.00 68 1015.2
20260906033502 85 155 0.0 0.0 0.00 0.00 0.00 69 1015.0
20260906032958 85 157 0.0 0.0 0.00 0.00 0.00 68 1015.1
20260906032454 85 159 0.0 0.0 0.00 0.00 0.00 68 1015.0
20260906031948 85 156 0.0 0.0 0.00 0.00 0.00 69 1015.0
20260906031444 85 156 0.0 0.0 0.00 0.00 0.00 69 1014.9
20260906030939 86 157 0.0 0.0 0.00 0.00 0.00 68 1015.1
20260906030433 86 159 0.0 0.0 0.00 0.00 0.00 67 1015.2
20260906025928 86 154 0.0 0.0 0.00 0.00 0.00 67 1015.2
20260906025422 86 148 0.0 0.0 0.00 0.00 0.00 67 1015.2
20260906024921 86 148 0.0 0.0 0.00 0.00 0.00 66 1014.9
20260906024421 86 148 0.0 0.0 0.00 0.00 0.00 66 1014.8
20260906023916 86 154 0.0 0.0 0.00 0.00 0.00 65 1014.8
20260906023413 86 150 0.0 0.0 0.00 0.00 0.00 66 1014.8
20260906022912 86 150 0.0 0.0 0.00 0.00 0.00 65 1014.6
20260906022407 87 150 0.0 0.0 0.00 0.00 0.00 64 1014.5
20260906021903 87 150 0.0 0.0 0.00 0.00 0.00 63 1014.5
20260906021402 89 151 0.0 0.0 0.00 0.00 0.00 60 1014.4
20260906020856 89 151 0.0 0.0 0.00 0.00 0.00 60 1014.4
20260906020351 89 151 0.0 0.0 0.00 0.00 0.00 60 1014.4
20260906015846 89 156 0.0 0.0 0.00 0.00 0.00 59 1014.3
20260906015344 89 156 0.0 0.0 0.00 0.00 0.00 58 1014.1
20260906014839 90 156 0.0 0.0 0.00 0.00 0.00 57 1014.2
20260906014334 90 157 0.0 0.0 0.00 0.00 0.00 56 1014.2
20260906013830 90 157 0.0 0.0 0.00 0.00 0.00 56 1014.0
20260906013325 90 148 0.0 0.0 0.00 0.00 0.00 56 1013.9
20260906012820 91 148 0.0 0.0 0.00 0.00 0.00 55 1014.0
20260906012315 91 148 0.0 0.0 0.00 0.00 0.00 54 1013.9
20260906011809 92 153 0.0 0.0 0.00 0.00 0.00 53 1014.1
20260906011304 92 153 0.0 0.0 0.00 0.00 0.00 53 1014.0
20260906010800 93 155 0.0 0.0 0.00 0.00 0.00 52 1013.9
20260906010256 93 152 0.0 0.0 0.00 0.00 0.00 51 1013.9
20260906005751 94 149 0.0 0.0 0.00 0.00 0.00 49 1013.8
20260906005249 95 149 0.0 0.0 0.00 0.00 0.00 48 1013.8
20260906004743 96 157 0.0 0.0 0.00 0.00 0.00 45 1013.7
20260906004239 96 156 0.0 0.0 0.00 0.00 0.00 44 1013.8
20260906003739 96 170 1.0 1.0 0.00 0.00 0.00 44 1013.7
20260906003234 97 154 0.0 0.0 0.00 0.00 0.00 45 1013.8
20260906002729 97 129 1.0 1.0 0.00 0.00 0.00 43 1013.8
20260906002229 98 153 0.0 1.0 0.00 0.00 0.00 43 1013.7
20260906001724 98 158 0.0 1.0 0.00 0.00 0.00 42 1013.8
20260906001219 98 182 2.0 2.0 0.00 0.00 0.00 42 1013.7
20260906000715 99 200 2.0 3.0 0.00 0.00 0.00 42 1013.8
20260906000212 99 161 2.0 2.0 0.00 0.00 0.00 41 1013.7
20260905235709 99 158 1.0 4.0 0.00 0.00 0.00 41 1013.6
20260905235204 100 152 0.0 2.0 0.00 0.00 0.00 39 1013.7
20260905234659 100 110 2.0 3.0 0.00 0.00 0.00 39 1013.7
20260905234154 100 157 1.0 2.0 0.00 0.00 0.00 39 1013.6
20260905233650 100 141 2.0 2.0 0.00 0.00 0.00 40 1013.6
20260905233149 100 152 0.0 1.0 0.00 0.00 0.00 40 1013.4
20260905232644 100 156 3.0 4.0 0.00 0.00 0.00 40 1013.3
20260905232140 100 158 0.0 1.0 0.00 0.00 0.00 39 1013.5
20260905231635 100 120 3.0 3.0 0.00 0.00 0.00 39 1013.3
20260905231131 100 181 1.0 4.0 0.00 0.00 0.00 39 1013.2
20260905230621 100 140 0.0 1.0 0.00 0.00 0.00 38 1013.5
20260905230118 100 80 2.0 6.0 0.00 0.00 0.00 38 1013.3
20260905225612 100 121 2.0 6.0 0.00 0.00 0.00 38 1013.3
20260905224647 99 158 1.0 2.0 0.00 0.00 0.00 39 1013.6
20260905224142 99 158 1.0 2.0 0.00 0.00 0.00 39 1013.6
20260905223639 100 172 1.0 6.0 0.00 0.00 0.00 39 1013.5
20260905223136 100 143 4.0 9.0 0.00 0.00 0.00 39 1013.5
20260905222631 100 205 2.0 3.0 0.00 0.00 0.00 38 1013.7
20260905222125 100 153 1.0 6.0 0.00 0.00 0.00 39 1013.8
20260905221621 100 116 2.0 7.0 0.00 0.00 0.00 39 1013.8
20260905221118 100 121 2.0 6.0 0.00 0.00 0.00 39 1013.8
20260905220613 101 127 2.0 3.0 0.00 0.00 0.00 39 1013.9
20260905220109 102 143 2.0 6.0 0.00 0.00 0.00 38 1013.7
20260905215608 101 155 0.0 3.0 0.00 0.00 0.00 38 1013.8
20260905215104 100 153 0.0 2.0 0.00 0.00 0.00 39 1014.0
20260905214600 100 158 2.0 4.0 0.00 0.00 0.00 41 1013.8
20260905214055 100 187 1.0 4.0 0.00 0.00 0.00 39 1013.8
20260905213550 101 97 4.0 4.0 0.00 0.00 0.00 39 1014.1
20260905213045 99 117 1.0 3.0 0.00 0.00 0.00 40 1014.0
20260905212545 100 153 0.0 1.0 0.00 0.00 0.00 40 1014.2
20260905212045 100 153 0.0 1.0 0.00 0.00 0.00 40 1014.2
20260905211540 101 180 3.0 6.0 0.00 0.00 0.00 40 1014.1
20260905211036 99 175 1.0 2.0 0.00 0.00 0.00 40 1014.3
20260905210531 100 25 1.0 7.0 0.00 0.00 0.00 41 1014.3
20260905210026 100 172 2.0 4.0 0.00 0.00 0.00 40 1014.5
20260905205525 101 177 2.0 3.0 0.00 0.00 0.00 39 1014.7
20260905205024 101 139 1.0 3.0 0.00 0.00 0.00 39 1014.5
20260905204520 101 184 2.0 7.0 0.00 0.00 0.00 41 1014.8
20260905204015 100 172 1.0 2.0 0.00 0.00 0.00 38 1014.7
20260905203510 99 157 0.0 3.0 0.00 0.00 0.00 42 1014.8
20260905203005 101 158 2.0 7.0 0.00 0.00 0.00 42 1014.9
20260905202500 100 158 1.0 6.0 0.00 0.00 0.00 41 1014.9
20260905201956 102 167 2.0 9.0 0.00 0.00 0.00 40 1015.1
20260905201450 99 163 1.0 7.0 0.00 0.00 0.00 41 1015.3
20260905200950 100 143 4.0 7.0 0.00 0.00 0.00 43 1015.3
20260905200446 100 178 2.0 6.0 0.00 0.00 0.00 41 1015.3
20260905195944 100 168 2.0 7.0 0.00 0.00 0.00 42 1015.7
20260905195439 99 178 3.0 3.0 0.00 0.00 0.00 42 1015.7
20260905194935 99 170 5.0 9.0 0.00 0.00 0.00 42 1015.7
20260905194434 101 167 4.0 8.0 0.00 0.00 0.00 40 1015.5
20260905193935 99 158 1.0 3.0 0.00 0.00 0.00 41 1016.0
20260905193435 100 202 1.0 8.0 0.00 0.00 0.00 41 1016.1
20260905192930 98 153 0.0 3.0 0.00 0.00 0.00 42 1016.2
20260905192425 99 125 4.0 9.0 0.00 0.00 0.00 41 1016.2